Flag for U.S.A. Weather past 2 weeks in Annapolis, Maryland, U.S.A.

Now
20 °F

Clear.


Feels Like: 20 °F
Forecast: 13 / 32 °F
Wind: No wind

Location: Annapolis - United States Naval Academy

Current Time: Mar 1, 2015 at 12:11:44 AM

Latest Report: Feb 28, 2015 at 10:54 PM


Visibility: 9 mi

Pressure: 30.77 "Hg

Humidity: 74%

Dew point: 13 °F

Location of AnnapolisLocation

Historic Weather in Annapolis — Graph

°F

Annapolis temperature yesterday

Maximum temperature yesterday: 26 °F (at 11:54 AM)
Minimum temperature yesterday: 18 °F (at 5:54 AM)
Average temperature yesterday: 22 °F

Past Weeks' High & Low Weather Summary

 TemperatureHumidityPressure
High42 °F (Feb 22, 12:54 PM)100% (Feb 22, 6:54 AM)30.88 "Hg (Feb 22, 6:54 AM)
Low3 °F (Feb 20, 5:54 AM)29% (Feb 20, 3:54 PM)29.48 "Hg (Feb 14, 5:54 PM)
Average23 °F58%30.17 "Hg
* Reported Feb 13 10:54 PM — Feb 28 10:54 PM, Annapolis, Weather by CustomWeather, © 2015

Note: Actual official high and low records may vary slightly from our data, if they occured in-between our weather recording intervals... More about our weather records

Advertising

Annapolis weather history for previous 24 hours

 ConditionsComfort  
Time TempWeatherWind HumidityBarometerVisibility
10:54 PM
Sat, Feb 28
20 °FClear.No wind74%30.77 "Hg9 mi
9:54 PM21 °FClear.No wind71%30.78 "Hg10 mi
8:54 PM22 °FClear.No wind66%30.79 "Hg10 mi
7:54 PM24 °FClear.5 mph44%30.79 "Hg10 mi
6:54 PM24 °FClear.6 mph46%30.78 "Hg10 mi
5:54 PM24 °FSunny.3 mph46%30.78 "Hg10 mi
4:54 PM26 °FSunny.6 mph40%30.79 "Hg10 mi
3:54 PM26 °FSunny.6 mph44%30.78 "Hg10 mi
2:54 PM25 °FSunny.8 mph44%30.80 "Hg10 mi
1:54 PM24 °FSunny.7 mph44%30.81 "Hg10 mi
12:54 PM24 °FSunny.7 mph48%30.84 "Hg10 mi
11:54 AM26 °FSunny.No wind33%30.86 "Hg10 mi
10:54 AM23 °FSunny.No wind36%30.88 "Hg10 mi
9:54 AM21 °FSunny.8 mph43%30.87 "Hg10 mi
8:54 AM21 °FSunny.8 mph43%30.87 "Hg10 mi
7:54 AM20 °FSunny.8 mph48%30.84 "Hg10 mi
6:54 AM18 °FSunny.5 mph52%30.81 "Hg10 mi
5:54 AM18 °FClear.8 mph49%30.79 "Hg10 mi
4:54 AM20 °FClear.9 mph48%30.76 "Hg10 mi
3:54 AM20 °FClear.9 mph48%30.73 "Hg10 mi
2:54 AM20 °FClear.6 mph50%30.71 "Hg10 mi
1:54 AM20 °FClear.5 mph48%30.71 "Hg10 mi
12:54 AM22 °FClear.8 mph46%30.69 "Hg10 mi
Weather by CustomWeather, © 2015

See weather overviewHow to use our weather pages